Regional Weather Roundup
Issued by NWS

Home | Current Version | Previous Version | Graphics & Text | Print | Product List | Glossary On
Versions: 1 2 3 4 5 6 7 8 9 10 11 12 13 14 15 16 17 18 19 20 21 22 23 24 25 26 27 28 29 30 31 32 33 34 35 36 37 38 39 40 41 42 43 44 45 46 47 48 49 50
000
ASUS43 KDTX 011601
RWRMI
MICHIGAN HOURLY REGIONAL WEATHER ROUNDUP
NATIONAL WEATHER SERVICE DETROIT/PONTIAC MI
1200 PM EDT TUE SEP 01 2015

NOTE: "FAIR" INDICATES FEW OR NO CLOUDS BELOW 12,000 FEET WITH NO
SIGNIFICANT WEATHER AND/OR OBSTRUCTION TO VISIBILITY.

MIZ047>049-052>055-059>063-066>070-074>076-081>083-011700-
SOUTHEAST LOWER MICHIGAN

CITY           SKY/WX    TMP DP  RH WIND       PRES   REMARKS
ADRIAN         MOSUNNY   84  69  60 SW7       30.11F
ALMA           SUNNY     80  73  78 S5        30.09S
ANN ARBOR      MOSUNNY   84  70  62 SW8       30.10F
BAD AXE        MOSUNNY   76  73  92 W6        30.09F
CARO           MOSUNNY   81  71  73 W3        30.08F
DETROIT CITY   SUNNY     84  68  58 CALM      30.09F
DETROIT        MOSUNNY   84  71  65 S3        30.10F
FLINT          SUNNY     84  70  62 S8        30.09F
GROSSE ILE     SUNNY     79  72  78 S5        30.09S
HILLSDALE      MOSUNNY   82  72  71 W5        30.12S
HOWELL         MOSUNNY   83  67  57 W6        30.10F

CITY           SKY/WX    TMP DP  RH WIND       PRES   REMARKS
JACKSON        SUNNY     82  72  71 VRB6      30.11S
LAMBERTVILLE   SUNNY     85  71  63 CALM      30.11S HX  90
LANSING        SUNNY     82  70  66 SW8       30.09F
LAPEER         FAIR      81  68  64 NW6       30.10F
MASON          MOSUNNY   83  69  61 W3        30.10S
MONROE         SUNNY     84  70  62 W5        30.09S
MT. CLEMENS    MOSUNNY   79  71  77 E7        30.08F HAZE
PONTIAC        MOSUNNY   82  69  64 W5        30.09F
PORT HOPE        N/A     76  69  79 W7        30.07S
PORT HURON     MOSUNNY   79  70  73 NW8       30.10S
TRI CITIES     SUNNY     80  70  71 SW3       30.08F
MIDLAND        FAIR      81  69  67 SW3       30.07S
TROY           MOSUNNY   83  69  61 SW3       30.11F
SAGINAW HB     SUNNY     79  70  73 SW3       30.07F
$$
MIZ043>046-050>051-056>058-064>065-071>073-077>080-011700-
SOUTHWEST LOWER MICHIGAN

CITY           SKY/WX    TMP DP  RH WIND       PRES   REMARKS
BATTLE CREEK   MOSUNNY   83  72  69 W7        30.10F
BENTON HARBOR  MOSUNNY   82  73  74 VRB3      30.07S
BIG RAPIDS     SUNNY     82  71  70 SW6       30.06F
COLDWATER      SUNNY     82  71  70 SW5       30.11S
FREMONT        FAIR      80  74  81 S7        30.05F
HOLLAND        SUNNY     83  73  72 SW7       30.08S
GRAND RAPIDS   MOSUNNY   83  73  72 S7        30.07F
IONIA          FAIR      83  71  65 W7        30.07F
KALAMAZOO      SUNNY     83  72  69 VRB5      30.09F
LUDINGTON      SUNNY     83  72  68 SW9       30.03F
MARSHALL       PTSUNNY   83  72  68 SW7       30.10S
MOUNT PLEASANT SUNNY     83  72  69 W7        30.07S
MUSKEGON       SUNNY     81  70  69 S12       30.06S
SOUTH HAVEN    MOSUNNY   82  72  72 W6        30.07S
$$
MIZ016>042-011700-
NORTHERN LOWER MICHIGAN

CITY           SKY/WX    TMP DP  RH WIND       PRES   REMARKS
ALPENA         SUNNY     80  68  66 SW9       30.04F
BEAVER ISLAND  MOSUNNY   79  69  70 SW9       30.00S
BELLAIRE       SUNNY     80  69  68 S6        30.02F
CADILLAC       SUNNY     80  71  72 SW7       30.07S
CHARLEVOIX     SUNNY     80  70  71 S6        30.04S
FRANKFORT      SUNNY     82  72  70 SW8       30.02S
GAYLORD        MOSUNNY   78  70  76 SW7       30.06F
GRAYLING       MOSUNNY   80  68  67 SW9       30.07F
HARBOR SPRINGS MOSUNNY   78  69  74 SW6       30.01F
HOUGHTON LAKE  SUNNY     78  69  73 SW5       30.08F
MANISTEE       SUNNY     82  72  69 S7        30.03F
OSCODA         SUNNY     81  69  66 W5        30.05F
PELLSTON       SUNNY     81  69  67 SW7       30.01F
ROGERS CITY    SUNNY     82  69  65 SW3       30.03S
TRAVERSE CITY  MOSUNNY   84  69  60 VRB7      30.01F
$$
MIZ007>008-015-011700-
EASTERN UPPER MICHIGAN

CITY           SKY/WX    TMP DP  RH WIND       PRES   REMARKS
KINROSS        MOSUNNY   79  70  73 SW8       30.00S
MACKINAC ISLAN MOSUNNY   76  69  79 SW6       30.01S
NEWBERRY       SUNNY     78  69  74 SW10      29.99S
$$
MIZ004>006-011>014-085-011700-
CENTRAL UPPER MICHIGAN

CITY           SKY/WX    TMP DP  RH WIND       PRES   REMARKS
MANISTIQUE     SUNNY     71  65  83 S12       29.99S
ESCANABA       CLOUDY    72  66  83 S7        29.97S
MENOMINEE      PTSUNNY   77  70  78 SW6       29.97F
SAWYER-GWINN   MOSUNNY   77  70  78 SW8       29.97F
$$
MIZ001>003-009>011-084-011700-
WESTERN UPPER MICHIGAN

CITY           SKY/WX    TMP DP  RH WIND       PRES   REMARKS
IRON MOUNTAIN  PTSUNNY   80  71  74 SE6       29.97S
HOUGHTON       PTSUNNY   78  68  71 W8        29.91S
IRONWOOD       CLOUDY    79  72  78 SW14      29.90S
$$

ABBREVIATIONS USED IN REMARKS
   TC - TEMPERATURE IN CELSIUS
  WCI - WIND CHILL INDEX
   HX - HEAT INDEX
  VSB - VISIBILITY




USA.gov is the U.S. government's official web portal to all federal, state and local government web resources and services.